Pipestone, MN

4:38 AM CDT on September 16, 2019 (GMT -0500)
Pipestone Municipal

Weather History for KPQN - August, 2019

Change the Weather History Date:

Thursday, August 22, 2019

  Actual Average Record
Temperature  
Mean Temperature 63 °F -  
Max Temperature 73 °F 77 °F 89 °F (2012)
Min Temperature 53 °F 57 °F 50 °F (2018)
Degree Days  
Heating Degree Days 2    
Growing Degree Days 13 (Base 50)    
Moisture  
Dew Point 55 °F    
Average Humidity 73    
Maximum Humidity 94    
Minimum Humidity 53    
Precipitation  
Precipitation 0.00 in - - ()
Sea Level Pressure  
Sea Level Pressure 30.08 in    
Wind  
Wind Speed 3 mph ()    
Max Wind Speed 9 mph    
Max Gust Speed -    
Visibility 10.0 miles    
Events      
Averages and records for this station are not official NWS values.
T = Trace of Precipitation, MM = Missing Value Source: Averaged Metar Reports

Daily Weather History Graph

Daily Weather History Graph

Search for Another Location

Airport or City:

Astronomy

Aug. 22, 2019 Rise Set
Actual Time 6:36 AM CDT 8:18 PM CDT
Civil Twilight 6:06 AM CDT 8:49 PM CDT
Nautical Twilight 5:29 AM CDT 9:26 PM CDT
Astronomical Twilight 4:48 AM CDT 10:05 PM CDT
Moon 11:54 PM CDT (8/22) 1:27 PM CDT (8/22)
Length of Visible Light 14h 42m
Length of Day
13h 41m
Waning Gibbous, 59% of the Moon is Illuminated
Aug 22
Waning Gibbous
Aug 23
Last Quarter
Aug 30
New
Sep 5
First Quarter
Sep 13
Full

Hourly Weather History & Observations

Time (CDT) Temp. Dew Point Humidity Pressure Visibility Wind Dir Wind Speed Gust Speed Precip Events Conditions
12:15 AM 60.8 °F 55.4 °F 82% 30.10 in 10.0 mi SSW 3.5 mph - N/A   Clear
12:20 AM 60.8 °F 53.6 °F 77% 30.10 in 10.0 mi Calm Calm - N/A   Clear
12:38 AM 60.8 °F 53.6 °F 77% 30.10 in 10.0 mi Calm Calm - N/A   Clear
12:55 AM 60.8 °F 53.6 °F 77% 30.10 in 10.0 mi Calm Calm - N/A   Clear
1:15 AM 59.0 °F 53.6 °F 82% 30.09 in 10.0 mi Calm Calm - N/A   Clear
1:16 AM 59.0 °F 53.6 °F 82% 30.09 in 10.0 mi Calm Calm - N/A   Clear
1:35 AM 57.2 °F 53.6 °F 88% 30.09 in 10.0 mi Calm Calm - N/A   Clear
1:59 AM 59.0 °F 53.6 °F 82% 30.08 in 10.0 mi SW 4.6 mph - N/A   Clear
2:16 AM 57.2 °F 53.6 °F 88% 30.08 in 10.0 mi Calm Calm - N/A   Clear
2:36 AM 57.2 °F 53.6 °F 88% 30.08 in 10.0 mi WSW 3.5 mph - N/A   Clear
2:55 AM 57.2 °F 53.6 °F 88% 30.08 in 10.0 mi Calm Calm - N/A   Clear
2:56 AM 57.2 °F 53.6 °F 88% 30.08 in 10.0 mi Calm Calm - N/A   Clear
3:15 AM 57.2 °F 53.6 °F 88% 30.08 in 10.0 mi Calm Calm - N/A   Clear
3:38 AM 55.4 °F 53.6 °F 94% 30.08 in 10.0 mi Calm Calm - N/A   Clear
3:55 AM 55.4 °F 53.6 °F 94% 30.08 in 10.0 mi Calm Calm - N/A   Clear
4:15 AM 55.4 °F 53.6 °F 94% 30.08 in 10.0 mi Calm Calm - N/A   Clear
4:16 AM 55.4 °F 53.6 °F 94% 30.08 in 10.0 mi Calm Calm - N/A   Clear
4:35 AM 55.4 °F 53.6 °F 94% 30.07 in 10.0 mi Calm Calm - N/A   Clear
4:59 AM 55.4 °F 51.8 °F 88% 30.08 in 10.0 mi Calm Calm - N/A   Clear
5:17 AM 55.4 °F 51.8 °F 88% 30.08 in 10.0 mi Calm Calm - N/A   Clear
5:36 AM 55.4 °F 51.8 °F 88% 30.08 in 10.0 mi Calm Calm - N/A   Clear
5:55 AM 53.6 °F 51.8 °F 94% 30.08 in 10.0 mi Calm Calm - N/A   Clear
5:56 AM 53.6 °F 51.8 °F 94% 30.08 in 10.0 mi Calm Calm - N/A   Clear
6:15 AM 55.4 °F 51.8 °F 88% 30.09 in 10.0 mi West 3.5 mph - N/A   Clear
6:37 AM 55.4 °F 51.8 °F 88% 30.09 in 10.0 mi SE 3.5 mph - N/A   Clear
6:56 AM 55.4 °F 51.8 °F 88% 30.09 in 10.0 mi Calm Calm - N/A   Clear
7:15 AM 55.4 °F 51.8 °F 88% 30.09 in 10.0 mi Calm Calm - N/A   Clear
7:16 AM 55.4 °F 51.8 °F 88% 30.09 in 10.0 mi Calm Calm - N/A   Clear
7:35 AM 57.2 °F 51.8 °F 82% 30.09 in 10.0 mi Calm Calm - N/A   Clear
7:36 AM 57.2 °F 51.8 °F 82% 30.09 in 10.0 mi Calm Calm - N/A   Clear
7:58 AM 59.0 °F 53.6 °F 82% 30.09 in 10.0 mi SSW 3.5 mph - N/A   Clear
8:16 AM 60.8 °F 53.6 °F 77% 30.10 in 10.0 mi South 5.8 mph - N/A   Clear
8:35 AM 62.6 °F 55.4 °F 77% 30.09 in 10.0 mi South 3.5 mph - N/A   Clear
8:55 AM 62.6 °F 55.4 °F 77% 30.10 in 10.0 mi Calm Calm - N/A   Clear
8:56 AM 62.6 °F 55.4 °F 77% 30.10 in 10.0 mi Calm Calm - N/A   Clear
9:15 AM 64.4 °F 55.4 °F 73% 30.10 in 10.0 mi SSW 5.8 mph - N/A   Clear
9:19 AM 64.4 °F 55.4 °F 73% 30.10 in 10.0 mi South 5.8 mph - N/A   Clear
9:38 AM 64.4 °F 55.4 °F 73% 30.10 in 10.0 mi SSW 4.6 mph - N/A   Clear
9:55 AM 66.2 °F 55.4 °F 68% 30.11 in 10.0 mi South 6.9 mph - N/A   Clear
10:15 AM 66.2 °F 55.4 °F 68% 30.11 in 10.0 mi South 6.9 mph - N/A   Clear
10:16 AM 66.2 °F 55.4 °F 68% 30.11 in 10.0 mi South 6.9 mph - N/A   Clear
10:35 AM 68.0 °F 53.6 °F 60% 30.11 in 10.0 mi SSE 6.9 mph - N/A   Clear
10:36 AM 68.0 °F 53.6 °F 60% 30.11 in 10.0 mi SE 6.9 mph - N/A   Clear
10:45 AM 68.0 °F 55.4 °F 64% 30.10 in 10.0 mi South 6.9 mph - N/A   Clear
12:55 PM 71.6 °F 55.4 °F 57% 30.10 in 10.0 mi SW 4.6 mph - N/A   Scattered Clouds
2:14 PM 71.6 °F 55.4 °F 57% 30.09 in 10.0 mi SW 4.6 mph - N/A   Scattered Clouds
2:15 PM 71.6 °F 55.4 °F 57% 30.09 in 10.0 mi SW 4.6 mph - N/A   Scattered Clouds
2:16 PM 71.6 °F 55.4 °F 57% 30.09 in 10.0 mi SSW 5.8 mph - N/A   Scattered Clouds
2:35 PM 73.4 °F 55.4 °F 53% 30.08 in 10.0 mi ESE 5.8 mph - N/A   Scattered Clouds
2:36 PM 73.4 °F 55.4 °F 53% 30.08 in 10.0 mi ESE 6.9 mph - N/A   Scattered Clouds
2:58 PM 73.4 °F 57.2 °F 57% 30.07 in 10.0 mi SW 4.6 mph - N/A   Scattered Clouds
3:16 PM 73.4 °F 55.4 °F 53% 30.07 in 10.0 mi SE 5.8 mph - N/A   Scattered Clouds
3:35 PM 73.4 °F 55.4 °F 53% 30.07 in 10.0 mi SSW 4.6 mph - N/A   Clear
3:36 PM 73.4 °F 55.4 °F 53% 30.07 in 10.0 mi SSW 4.6 mph - N/A   Clear
3:55 PM 73.4 °F 55.4 °F 53% 30.06 in 10.0 mi South 5.8 mph - N/A   Clear
3:56 PM 73.4 °F 57.2 °F 57% 30.06 in 10.0 mi South 6.9 mph - N/A   Clear
4:15 PM 73.4 °F 57.2 °F 57% 30.06 in 10.0 mi South 6.9 mph - N/A   Clear
4:19 PM 73.4 °F 55.4 °F 53% 30.06 in 10.0 mi SSE 6.9 mph - N/A   Clear
4:37 PM 73.4 °F 55.4 °F 53% 30.05 in 10.0 mi SE 8.1 mph - N/A   Scattered Clouds
4:56 PM 73.4 °F 55.4 °F 53% 30.05 in 10.0 mi SE 5.8 mph - N/A   Clear
5:15 PM 73.4 °F 55.4 °F 53% 30.06 in 10.0 mi SE 8.1 mph - N/A   Clear
5:16 PM 73.4 °F 55.4 °F 53% 30.06 in 10.0 mi SE 8.1 mph - N/A   Clear
5:35 PM 73.4 °F 55.4 °F 53% 30.05 in 10.0 mi SE 8.1 mph - N/A   Clear
5:36 PM 73.4 °F 55.4 °F 53% 30.05 in 10.0 mi SE 8.1 mph - N/A   Clear
5:59 PM 73.4 °F 55.4 °F 53% 30.05 in 10.0 mi SE 9.2 mph - N/A   Clear
6:16 PM 73.4 °F 57.2 °F 57% 30.05 in 10.0 mi South 5.8 mph - N/A   Clear
6:36 PM 71.6 °F 57.2 °F 60% 30.05 in 10.0 mi SSE 6.9 mph - N/A   Clear
6:55 PM 71.6 °F 55.4 °F 57% 30.05 in 10.0 mi SE 6.9 mph - N/A   Clear
7:15 PM 69.8 °F 57.2 °F 64% 30.06 in 10.0 mi SE 8.1 mph - N/A   Clear
7:37 PM 69.8 °F 57.2 °F 64% 30.06 in 10.0 mi SSE 6.9 mph - N/A   Clear
7:56 PM 66.2 °F 57.2 °F 73% 30.06 in 10.0 mi SSE 6.9 mph - N/A   Clear
8:15 PM 66.2 °F 57.2 °F 73% 30.08 in 10.0 mi SSE 5.8 mph - N/A   Clear
8:16 PM 66.2 °F 57.2 °F 73% 30.08 in 10.0 mi South 5.8 mph - N/A   Clear
8:35 PM 64.4 °F 55.4 °F 73% 30.08 in 10.0 mi South 4.6 mph - N/A   Clear
8:36 PM 64.4 °F 55.4 °F 73% 30.08 in 10.0 mi South 5.8 mph - N/A   Clear
8:58 PM 64.4 °F 55.4 °F 73% 30.09 in 10.0 mi SSE 5.8 mph - N/A   Clear
9:16 PM 62.6 °F 55.4 °F 77% 30.09 in 10.0 mi South 5.8 mph - N/A   Clear
9:35 PM 62.6 °F 55.4 °F 77% 30.10 in 10.0 mi SSE 6.9 mph - N/A   Clear
9:55 PM 62.6 °F 55.4 °F 77% 30.10 in 10.0 mi SE 8.1 mph - N/A   Clear
9:56 PM 62.6 °F 55.4 °F 77% 30.10 in 10.0 mi SE 8.1 mph - N/A   Clear
10:15 PM 62.6 °F 55.4 °F 77% 30.11 in 10.0 mi South 6.9 mph - N/A   Clear
10:19 PM 62.6 °F 55.4 °F 77% 30.11 in 10.0 mi SSE 6.9 mph - N/A   Clear
10:38 PM 60.8 °F 55.4 °F 82% 30.11 in 10.0 mi SSE 6.9 mph - N/A   Clear
10:55 PM 60.8 °F 55.4 °F 82% 30.11 in 10.0 mi SSE 6.9 mph - N/A   Clear
11:15 PM 60.8 °F 53.6 °F 77% 30.12 in 10.0 mi South 5.8 mph - N/A   Clear
11:16 PM 60.8 °F 53.6 °F 77% 30.12 in 10.0 mi South 5.8 mph - N/A   Clear
11:35 PM 59.0 °F 53.6 °F 82% 30.12 in 10.0 mi SSE 6.9 mph - N/A   Clear
11:58 PM 59.0 °F 53.6 °F 82% 30.12 in 10.0 mi South 5.8 mph - N/A   Clear